Tracking 30061 objects as of 9-Dec-2024
HD Live streaming from Space Station
objects crossing your sky now

IRIDIUM 33 DEB

Track IRIDIUM 33 DEB now!
10-day predictions


NORAD ID: 34079
Int'l Code: 1997-051CN
Perigee: 662.3 km
Apogee: 671.7 km
Inclination: 86.4 °
Period: 97.9 minutes
Semi major axis: 7037 km
RCS: 0.0496 m2 (small)
Launch date: September 14, 1997
Source: United States (US)
Launch site: TYURATAM MISSILE AND SPACE COMPLEX (TTMTR)

Note: This is SATELLITE DEBRIS
Your satellite tracking list
Your tracking list is empty




NASA's NSSDC Master Catalog

Two Line Element Set (TLE):
1 34079U 97051CN  24343.55999910  .00020563  00000-0  33886-2 0  9994
2 34079  86.3840 174.8686 0006701 168.9935 243.7298 14.70384632835266
Source of the keplerian elements: AFSPC